YMMLYMAV

Guest
Details From YMML - Melbourne Intl
To YMAV - Avalon
Flight Number -
Tags generated
Created
Modified
Stats Distance 29 nm / 54 km
Max Altitude 100 ft / 30 m
Waypoints 3
Social Downloads 0
Likes 0
Share VATSIM

Download

Looking for another format? Having issues loading an existing format? Contact us
Advertisement - Login to hide

Notes

Basic altitude profile: - Ascent Rate: 2500ft/min - Ascent Speed: 250kts - Cruise Altitude: 50000ft - Cruise Speed: 420kts - Descent Rate: 700ft/min - Descent Speed: 250kts Options: - Use NATs: yes - Use PACOTS: yes - Use low airways: yes - Use high airways: yes

Route

YMML ML YMAV

ID Type Via Altitude Latitude Longitude Leg Dist Tot Dist Heading (true) Name
O YMML APT - 0 ft / 0 m -37.66530˚ 144.83667˚ - 0 nm - Melbourne Intl
ML VOR - 100 ft / 30 m -37.66000˚ 144.84194˚ 0 nm 0 nm 38° / 38° MELBOURNE VOR-DME
O YMAV APT - 0 ft / 0 m -38.04084˚ 144.46713˚ 28 nm 29 nm 218° / 218° Avalon

Altitude Profile

Advertisement - Login to hide

YMML

Details ICAO YMML (MEL)
Name Melbourne Intl
Region Australia
Timezone Australia/Melbourne (UTC+10.0)
Stats Elevation 433 ft / 132 m (AMSL)
Location -37.665301° 144.836668°
Runways 2
Magnetic Variation 11.508° E

METAR

YMML 270400Z 36019KT CAVOK 20/08 Q1022 FM0400 MOD TURB BLW 5000FT

Decode

TAF

TAF YMML 262321Z 2700/2806 01018G34KT CAVOK FM270800 01014KT CAVOK FM272200 01016G28KT CAVOK

Decode

Departure Runways

ID Width Length Bearing (true) Bearing (mag) Surface Threshold Offset Overrun Length
09 148 ft / 45 m 7,494 ft / 2,284 m 94.01° 82.50° Asphalt 0 ft / 0 m 0 ft / 0 m
16 148 ft / 45 m 12,008 ft / 3,660 m 171.02° 159.51° Asphalt 98 ft / 30 m 0 ft / 0 m
27 148 ft / 45 m 7,494 ft / 2,284 m 274.00° 262.49° Asphalt 0 ft / 0 m 0 ft / 0 m
34 148 ft / 45 m 12,008 ft / 3,660 m 351.01° 339.50° Asphalt 98 ft / 30 m 0 ft / 0 m

YMAV

Details ICAO YMAV (AVV)
Name Avalon
Region Australia
Timezone Australia/Melbourne (UTC+10.0)
Stats Elevation 35 ft / 11 m (AMSL)
Location -38.040844° 144.467132°
Runways 1
Magnetic Variation 11.478° E

METAR

YMAV 270400Z AUTO 02009KT 9999 // NCD 22/10 Q1021 RF00.0/000.0

Decode

TAF

TAF YMAV 262330Z 2700/2724 01012KT CAVOK FM270800 03008KT CAVOK FM272200 01015G25KT CAVOK

Decode

Destination Runways

ID Width Length Bearing (true) Bearing (mag) Surface Threshold Offset Overrun Length
18 148 ft / 45 m 10,010 ft / 3,051 m 187.50° 176.02° Asphalt 0 ft / 0 m 797 ft / 243 m
36 148 ft / 45 m 10,010 ft / 3,051 m 7.50° 356.02° Asphalt 0 ft / 0 m 1,010 ft / 308 m

Approach Navaids

Runway Type Ident Frequency Range Bearing (true) Bearing (mag) Slope Elevation
18 Localiser IAV 109.50 MHz 18 nm / 33 km 187.62° 176.14° - 32 ft / 10 m (AMSL)
18 Glidescope IAV 109.50 MHz 10 nm / 19 km 187.50° 176.02° 3.00° 35 ft / 11 m (AMSL)
18 DME IAV 109.50 MHz 18 nm / 33 km - - - 35 ft / 11 m (AMSL)

Popular Alternatives